Track INSAT 2R (ARABSAT 1C) now! INSAT 2R (ARABSAT 1C) is classified as:
1 21894U 92010B 21025.78935420 -.00000219 00000-0 00000-0 0 9997 2 21894 12.8649 25.4745 0026146 237.8819 133.7020 0.98686000104828